Lid_Strength_Index
1 1 1 1 0 0 0 -0 -0 -1 -1 -1 -0 -0 -0 -1 -1 -1 -0 0 0 0 0 0 0 -0 1 1 0 1 1 1 3 2 1 0 0 0 -0 -1 -1 1 3
1 1 1 1 0 1 0 0 -0 0 -1 -1 -1 -1 -0 -0 -1 -0 0 0 0 1 1 1 1 0 0 0 1 1 1 1 2 3 2 1 1 -0 -0 0 -0 1 3
1 1 1 1 1 1 1 0 -0 -0 -0 -0 -1 0 0 0 -0 -0 0 0 0 1 0 1 1 1 1 1 1 1 1 1 1 2 2 1 1 0 1 0 0 1 3
1 1 1 1 1 1 0 0 0 -0 0 -0 -0 0 0 -0 -0 0 0 0 0 0 0 0 0 1 1 1 1 1 1 1 1 2 2 2 1 0 1 1 2 0 4
1 1 1 1 0 0 0 -0 -0 -0 0 -0 -0 0 0 0 0 0 0 -0 0 0 0 0 -0 -0 0 0 0 0 1 1 2 2 2 2 2 2 2 1 2 1 1
1 2 1 1 1 1 0 0 0 0 0 0 0 0 1 -0 4 3 1 0 0 1 1 0 -0 0 0 1 1 1 1 1 2 2 2 3 2 2 1 2 2 3 3
1 1 1 1 1 1 0 1 1 1 0 1 1 0 0 5 7 5 3 0 0 0 0 0 1 0 0 -0 2 2 2 2 1 1 2 2 2 1 1 2 2 2 2
2 1 1 1 1 1 1 1 1 0 1 1 1 0 0 5 7 6 5 1 0 0 -0 0 0 0 4 2 0 1 1 1 2 3 1 2 2 2 0 1 1 1 1
2 2 1 1 1 1 1 1 0 1 1 0 1 1 3 5 6 6 3 0 -0 0 0 4 2 2 7 6 1 1 1 4 6 5 5 4 4 4 2 0 3 2 3
2 1 1 1 1 1 1 1 1 1 2 2 3 3 4 4 8 7 4 1 1 1 2 5 7 7 7 6 1 1 2 1 3 3 3 3 3 5 5 6 5 4 3
1 1 1 1 1 1 1 1 1 1 3 3 4 4 5 5 6 8 6 1 1 2 3 6 8 8 8 8 7 5 4 3 1 2 4 6 5 6 7 6 7 7 6
1 2 2 1 1 1 1 2 3 4 5 6 6 6 7 7 8 8 8 7 4 5 7 8 9 10 11 10 8 8 7 5 5 7 8 9 9 8 6 7 7 7 7
2 2 2 1 1 1 1 2 3 3 4 5 5 7 7 6 7 8 8 7 6 5 6 8 8 9 9 8 9 8 6 5 6 7 8 8 8 8 7 6 6 6 6
3 3 2 2 2 1 1 1 2 2 3 3 5 6 6 5 4 4 5 5 5 5 6 5 6 6 7 6 5 5 5 5 6 7 7 8 8 7 8 7 6 5 6
2 2 3 4 4 5 7 7 4 7 7 2 2 3 5 7 9 12 10 3 2 4 3 3 3 4 4 4 4 4 6 6 6 6 6 6 6 6 6 6 7 5 5
3 3 3 3 4 4 5 7 12 12 13 13 12 8 10 11 13 12 13 10 9 9 3 2 3 4 4 4 3 3 4 4 5 5 6 6 5 5 5 4 4 5 5
2 2 2 3 3 4 3 4 5 9 11 12 12 12 11 11 11 12 12 10 9 8 3 1 2 2 2 2 2 2 3 3 3 4 4 3 4 4 5 4 4 4 5
1 4 1 1 1 1 1 1 2 2 3 5 9 8 10 10 9 10 9 8 2 4 1 1 1 1 1 1 1 1 2 2 2 3 3 3 3 3 3 3 5 6 5
2 1 1 1 1 3 2 2 3 1 1 2 2 7 8 9 9 9 10 3 1 1 1 1 1 1 1 1 1 2 2 4 3 3 4 4 5 5 5 5 7 7 6
1 2 1 1 1 0 1 1 1 1 1 1 1 2 4 7 5 4 5 3 1 1 1 0 0 -0 0 0 0 1 2 3 3 3 4 4 4 5 5 6 6 6 5
2 2 3 1 1 1 0 0 0 0 1 1 1 2 4 1 1 1 1 1 0 -0 -0 -0 0 0 -0 -0 -0 1 2 2 3 4 4 5 5 5 4 4 4 5 5
1 1 1 1 1 0 1 0 0 1 1 1 1 3 6 0 1 1 1 -0 -1 -0 -1 -1 -0 -0 -0 0 1 1 2 2 2 3 3 3 3 3 3 4 3 4 4
0 1 1 1 1 1 0 1 1 0 0 0 0 2 2 1 1 1 1 -0 -0 -0 -1 -1 -1 -1 -1 -0 0 0 1 2 2 2 2 2 2 2 3 3 3 3 4
0 1 1 1 1 1 1 1 1 2 1 1 1 1 1 1 1 -0 -0 -1 -0 0 -0 -0 -0 0 -0 0 0 0 0 1 1 1 1 2 2 4 3 3 3 4 4
0 1 1 1 1 1 1 1 1 1 1 1 1 0 0 0 0 0 1 0 -1 -1 -0 -0 -0 -0 -0 -1 2 4 9 8 3 5 1 0 1 2 3 3 2 3 4
0 0 1 2 3 2 2 3 3 2 3 3 2 2 0 1 -0 0 -0 -1 1 1 -2 0 1 -1 -1 -1 2 8 11 7 5 8 2 0 1 2 2 2 2 3 3